Flag for Belgium Weather past 2 weeks in Charleroi, Belgium

Now
50 °F

Passing clouds.


Feels Like: 47 °F
Forecast: 52 / 61 °F
Wind: 7 mph from Southwest

Location: Charleroi / Gosselies

Current Time: Sep 4, 2015 at 3:50:58 AM

Latest Report: Sep 4, 2015 at 3:20 AM


Visibility: N/A

Pressure: 30.01 "Hg

Humidity: 88%

Dew point: 46 °F

Location of CharleroiLocation

Historic Weather in Charleroi — Graph

°F

Charleroi temperature yesterday

Maximum temperature yesterday: 61 °F (at 12:20 PM)
Minimum temperature yesterday: 48 °F (at 4:50 AM)
Average temperature yesterday: 53 °F

Past Weeks' High & Low Weather Summary

 TemperatureHumidityPressure
High86 °F (Aug 30, 3:20 PM)100% (Aug 24, 3:20 AM)30.24 "Hg (Aug 24, 3:20 AM)
Low48 °F (Sep 3, 4:50 AM)34% (Aug 22, 5:50 PM)29.50 "Hg (Aug 24, 1:50 PM)
Average64 °F76%29.97 "Hg
* Reported Aug 20 2:20 AM — Sep 4 2:50 AM, Charleroi, Weather by CustomWeather, © 2015

Note: Actual official high and low records may vary slightly from our data, if they occured in-between our weather recording intervals... More about our weather records

Advertising

Charleroi weather history for previous 24 hours

 ConditionsComfort  
Time TempWeatherWind HumidityBarometerVisibility
2:50 AM
Fri, Sep 4
50 °FPassing clouds.7 mph88%30.01 "HgN/A
2:20 AM50 °FPassing clouds.8 mph88%30.01 "HgN/A
1:50 AM50 °FPassing clouds.7 mph94%30.01 "HgN/A
1:20 AM52 °FPassing clouds.8 mph88%30.01 "HgN/A
12:50 AM52 °FPassing clouds.7 mph88%30.01 "HgN/A
12:20 AM52 °FPassing clouds.6 mph88%30.01 "HgN/A
11:50 PM
Thu, Sep 3
52 °FPassing clouds.7 mph88%30.01 "HgN/A
11:20 PM52 °FPassing clouds.7 mph88%30.01 "HgN/A
10:50 PM54 °FPassing clouds.6 mph82%30.01 "HgN/A
10:20 PM54 °FPassing clouds.7 mph88%30.01 "HgN/A
9:50 PM52 °FPassing clouds.6 mph94%30.01 "HgN/A
9:20 PM52 °FScattered clouds.6 mph94%30.01 "HgN/A
8:50 PM54 °FScattered clouds.3 mph88%29.98 "HgN/A
8:20 PM54 °FPartly sunny.3 mph88%29.98 "HgN/A
7:50 PM54 °FPassing clouds.5 mph88%29.98 "HgN/A
7:20 PM54 °FSprinkles. Scattered clouds.7 mph88%29.98 "HgN/A
6:50 PM55 °FScattered clouds.5 mph82%29.98 "HgN/A
6:20 PM57 °FScattered clouds.5 mph82%29.98 "HgN/A
5:50 PM57 °FScattered clouds.5 mph82%29.98 "HgN/A
5:20 PM55 °FScattered clouds.3 mph82%29.98 "HgN/A
4:50 PM54 °FScattered clouds.2 mph82%29.98 "HgN/A
4:20 PM59 °FPassing clouds.6 mph63%29.98 "HgN/A
3:50 PM59 °FPassing clouds.6 mph72%29.98 "HgN/A
3:20 PM55 °FPassing clouds.6 mph82%29.98 "HgN/A
2:50 PM54 °FPassing clouds.7 mph88%29.98 "HgN/A
2:20 PM54 °FSprinkles. Passing clouds.9 mph88%29.98 "HgN/A
1:50 PM59 °FSprinkles. Scattered clouds.6 mph68%29.98 "HgN/A
1:20 PM59 °FScattered clouds.8 mph68%29.98 "HgN/A
12:50 PM59 °FScattered clouds.8 mph68%29.98 "HgN/A
12:20 PM61 °FScattered clouds.8 mph63%29.98 "HgN/A
11:50 AM59 °FScattered clouds.10 mph72%29.98 "HgN/A
11:20 AM57 °FPassing clouds.9 mph77%29.98 "HgN/A
10:50 AM55 °FScattered clouds.8 mph82%29.98 "Hg4 mi
10:20 AM52 °FFog.7 mph88%30.01 "Hg3 mi
9:50 AM48 °FFog.7 mph100%29.98 "Hg1 mi
9:20 AM48 °FFog.8 mph94%30.01 "Hg1 mi
8:50 AM48 °FFog.7 mph100%30.01 "Hg0 mi
8:20 AM48 °FFog.7 mph94%29.98 "Hg0 mi
7:50 AM48 °FFog.6 mph94%29.98 "Hg0 mi
7:20 AM48 °FFog.7 mph94%29.98 "Hg0 mi
6:50 AM48 °FFog.6 mph100%29.98 "Hg0 mi
6:20 AM48 °FFog.7 mph100%29.98 "Hg0 mi
5:50 AM48 °FFog.5 mph100%29.98 "Hg0 mi
5:20 AM48 °FFog.5 mph100%29.98 "Hg1 mi
4:50 AM48 °FFog.5 mph94%29.98 "Hg1 mi
4:20 AM50 °FFog.6 mph94%30.01 "Hg1 mi
3:50 AM50 °FFog.5 mph94%30.01 "Hg1 mi
3:20 AM50 °FFog.3 mph94%30.01 "Hg2 mi
Weather by CustomWeather, © 2015

See weather overviewHow to use our weather pages